TimeMST,TemperatureF,Dew PointF,Humidity,Sea Level PressureIn,VisibilityMPH,Wind Direction,Wind SpeedMPH,Gust SpeedMPH,PrecipitationIn,Events,Conditions,WindDirDegrees,DateUTC
12:53 AM,39.9,26.1,58,29.83,10.0,West,13.8,19.6,N/A,,Clear,260,2013-11-08 07:53:00
1:53 AM,39.9,25.0,55,29.83,10.0,West,11.5,21.9,N/A,,Clear,260,2013-11-08 08:53:00
2:53 AM,42.1,24.1,49,29.86,10.0,West,5.8,21.9,N/A,,Overcast,270,2013-11-08 09:53:00
3:53 AM,42.1,24.1,49,29.86,10.0,WSW,17.3,26.5,N/A,,Overcast,250,2013-11-08 10:53:00
4:53 AM,42.1,24.1,49,29.87,10.0,WSW,10.4,21.9,N/A,,Overcast,250,2013-11-08 11:53:00
5:53 AM,43.0,24.1,47,29.89,10.0,West,8.1,18.4,N/A,,Overcast,270,2013-11-08 12:53:00
6:53 AM,42.1,25.0,51,29.90,10.0,West,21.9,31.1,N/A,,Overcast,270,2013-11-08 13:53:00
7:53 AM,43.0,25.0,49,29.93,10.0,West,10.4,24.2,N/A,,Overcast,270,2013-11-08 14:53:00
8:53 AM,43.0,24.1,47,29.94,10.0,WSW,9.2,19.6,N/A,,Overcast,250,2013-11-08 15:53:00
9:53 AM,44.1,25.0,47,29.98,10.0,WNW,3.5,-,N/A,,Overcast,290,2013-11-08 16:53:00
10:53 AM,45.0,25.0,46,29.99,10.0,West,5.8,-,N/A,,Overcast,280,2013-11-08 17:53:00
11:53 AM,46.0,25.0,44,29.99,10.0,West,4.6,-,N/A,,Overcast,280,2013-11-08 18:53:00
12:53 PM,46.0,27.0,47,29.99,10.0,NW,6.9,-,N/A,,Overcast,310,2013-11-08 19:53:00
1:53 PM,45.0,28.9,53,29.99,10.0,WSW,5.8,-,N/A,,Overcast,250,2013-11-08 20:53:00
2:53 PM,45.0,28.9,53,29.99,10.0,WSW,5.8,-,N/A,,Overcast,240,2013-11-08 21:53:00
3:53 PM,44.1,28.9,55,30.02,10.0,West,13.8,19.6,N/A,,Overcast,270,2013-11-08 22:53:00
4:53 PM,43.0,28.0,56,30.03,10.0,West,5.8,-,N/A,,Overcast,280,2013-11-08 23:53:00
5:53 PM,41.0,26.1,55,30.06,10.0,West,8.1,-,N/A,,Mostly Cloudy,280,2013-11-09 00:53:00
6:53 PM,39.0,25.0,57,30.10,10.0,WNW,3.5,-,N/A,,Partly Cloudy,290,2013-11-09 01:53:00
7:53 PM,39.0,24.1,55,30.12,10.0,West,10.4,-,N/A,,Clear,280,2013-11-09 02:53:00
8:53 PM,39.0,19.9,46,30.13,10.0,West,12.7,-,N/A,,Clear,260,2013-11-09 03:53:00
9:53 PM,39.9,19.9,45,30.15,10.0,WSW,11.5,-,N/A,,Overcast,250,2013-11-09 04:53:00
10:53 PM,39.9,19.9,45,30.16,10.0,WSW,4.6,-,N/A,,Overcast,250,2013-11-09 05:53:00
11:53 PM,39.0,21.0,49,30.18,10.0,West,8.1,-,N/A,,Overcast,280,2013-11-09 06:53:00